Regional Weather Roundup
Issued by NWS

Home | Current Version | Previous Version | Graphics & Text | Print | Product List | Glossary On
Versions: 1 2 3 4 5 6 7 8 9 10 11 12 13 14 15 16 17 18 19 20 21 22 23 24 25 26 27 28 29 30 31 32 33 34 35 36 37 38 39 40 41 42 43 44 45 46 47 48 49 50
000
ASUS43 KLOT 272106
RWRIL

ILLINOIS REGIONAL WEATHER ROUNDUP
NATIONAL WEATHER SERVICE CHICAGO/ROMEOVILLE IL
300 PM CST FRI FEB 27 2015

NOTE: "FAIR" INDICATES FEW OR NO CLOUDS BELOW 12,000 FEET WITH NO
SIGNIFICANT WEATHER AND/OR OBSTRUCTIONS TO VISIBILITY.

* THESE STATIONS ARE NOT UNDER NWS QUALITY CONTROL. THEY ALSO MAY NOT
  REPORT WEATHER SUCH AS PRECIPITATION OR FOG.

ILZ001-002-007-009-015-016-024-272200-
NORTHWEST ILLINOIS

CITY           SKY/WX    TMP DP  RH WIND       PRES   REMARKS
MOLINE         SUNNY     14  -2  49 W6        30.62S WCI   5
STERLING*      SUNNY     12   0  57 W6        30.62F WCI   3
SAVANNA*       SUNNY     13  -5  45 W8        30.62S WCI   1
$$

ILZ003-004-008-010-011-017-018-272200-
NORTH CENTRAL ILLINOIS

CITY           SKY/WX    TMP DP  RH WIND       PRES   REMARKS
ROCKFORD       SUNNY     12  -5  46 W8        30.61S WCI   0
FREEPORT*      SUNNY     10  -2  57 SW6       30.60S WCI   0
ROCHELLE*      SUNNY      9  -1  65 SW10      30.61S WCI  -5
DE KALB*       SUNNY      9  -4  56 W8        30.59S WCI  -4
PERU*          SUNNY     13  -1  53 NW9       30.63R WCI   1
$$

ILZ005-006-012>014-019>023-272200-
NORTHEAST ILLINOIS

CITY           SKY/WX    TMP DP  RH WIND       PRES   REMARKS
CHICAGO-OHARE  SUNNY     13  -4  46 W13       30.59R WCI  -2
CHICAGO-MIDWAY SUNNY     17  -2  43 W10       30.60S WCI   5
AURORA         SUNNY     11  -4  51 W12       30.61S WCI  -3
LANSING*       SUNNY     15  -2  45 W9        30.60S WCI   4
JOLIET*        SUNNY     11  -3  51 W3        30.63R
WAUKEGAN       SUNNY     15  -4  42 VRB7      30.57R WCI   5
DUPAGE AIRPORT SUNNY     11  -4  51 W9        30.59S WCI  -2
KANKAKEE*      SUNNY     12   1  61 W8        30.63S WCI   1
WHEELING       SUNNY     16  -5  39 W9        30.60S WCI   4
MORRIS*        SUNNY     11   1  64 NW7       30.62S WCI   1
ROMEOVILLE*    SUNNY     12  -2  53 W9        30.61S WCI   0
NORTHERLY ISL    N/A     18  -4  37 W6          N/A  WCI  10
$$

LMZ740>746-272200-
SOUTHERN LAKE MICHIGAN

STATION/POSITION SKY/WX   TEMP    WIND        PRES    VSBY  WAVE
                          AIR SEA DIR/SP/G                  HT/PER
                          (F)     (DEG/KT/KT) (MB)    (MI)  (FT/S)
WAUKEGAN HARBOR            15     250/ 10/ 14   N/A
HARRISON CRIB              16     270/  6/ 11   N/A
BURNHAM HARBOR             18     290/  6/ 12   N/A
CALUMET HARBOR             17     230/  5/  9 1034.5F
MICHIGAN CITY              16     250/  6/  8   N/A
$$

ILZ025>027-034>036-040-047-049-050-058-095>099-272200-
WEST-CENTRAL ILLINOIS

CITY           SKY/WX    TMP DP  RH WIND       PRES   REMARKS
QUINCY         SUNNY     11  -5  48 CALM      30.63S
GALESBURG*     SUNNY     10  -1  60 NW5       30.63R WCI   2
MACOMB*        SUNNY     10   0  62 NW6       30.66S WCI   1
JACKSONVILLE*  SUNNY     14  -1  52 CALM      30.65R
PITTSFIELD*    FAIR      14  -2  49 CALM      30.64R
$$

ILZ028>032-037-038-041>044-048-051>054-059>061-272200-
CENTRAL ILLINOIS

CITY           SKY/WX    TMP DP  RH WIND       PRES   REMARKS
PONTIAC        SUNNY     12   0  58 W3        30.64R
BLOOMINGTON    SUNNY     16   1  51 E5        30.62R WCI   9
DECATUR        SUNNY     14   2  58 E6        30.63S WCI   5
PEORIA         SUNNY     16  -3  43 W6        30.64R WCI   7
LACON*         SUNNY     12  -4  48 N6        30.63S WCI   2
LINCOLN*       CLOUDY    16   4  60 N3        30.66S
SPRINGFIELD    SUNNY     12   1  61 SW8       30.65R WCI   0
TAYLORVILLE    SUNNY     14   1  57 CALM      30.64S
$$

ILZ033-039-045-046-055>057-062-063-272200-
EAST-CENTRAL ILLINOIS

CITY           SKY/WX    TMP DP  RH WIND       PRES   REMARKS
CHAMPAIGN      SUNNY     13   1  59 W7        30.61F WCI   3
DANVILLE*      SUNNY     16   0  50 CALM      30.59S
RANTOUL*       SUNNY     17   2  52 CALM      30.61F
MATTOON        SUNNY     14   1  56 NW5       30.62S WCI   6
PARIS*         SUNNY     14   3  60 NW6       30.63F WCI   5
$$

ILZ079-100>102-272200-
SOUTHWEST ILLINOIS

CITY           SKY/WX    TMP DP  RH WIND       PRES   REMARKS
ALTON          MOSUNNY   16  -8  35 N7        30.64F WCI   6
CAHOKIA*       SUNNY     21   1  41 N7        30.64S WCI  12
SPARTA*        SUNNY     20   5  54 NW5       30.62F WCI  13
$$

ILZ064>066-069>071-074>076-080>082-084>086-088>090-092>094-272200-
SOUTH-CENTRAL ILLINOIS

CITY           SKY/WX    TMP DP  RH WIND       PRES   REMARKS
CARBONDALE     PTSUNNY   21   7  54 CALM      30.62F
CAIRO*         FAIR      26  11  52 NE8       30.61S WCI  18
EFFINGHAM*     SUNNY     16  -2  44 NW5       30.64F WCI   9
MARION         PTSUNNY   23   9  54 N7        30.62S WCI  15
MT. VERNON     SUNNY     21   5  49 N3        30.63R
CENTRALIA*     FAIR      17   2  50 NW5       30.63S WCI  10
SALEM*         SUNNY     18   2  50 N6        30.63S WCI  10
METROPOLIS*    SUNNY     26   9  49 NE3       30.59S
$$

ILZ067-068-072-073-078-083-087-091-272200-
SOUTHEAST ILLINOIS

CITY           SKY/WX    TMP DP  RH WIND       PRES   REMARKS
LAWRENCEVILLE  SUNNY     21   3  45 N9        30.64S WCI  11
FLORA*         SUNNY     17   1  51 N3        30.64S
FAIRFIELD*     SUNNY     18   5  55 N6        30.63S WCI  10
HARRISBURG*    PTSUNNY   22   8  55 N6        30.64S WCI  14
ROBINSON*      SUNNY     19   2  49 NW5       30.65R WCI  12
CARMI*         SUNNY     24  13  64 NW6       30.63R WCI  17
$$

ABBREVIATIONS USED IN REMARKS
   TC - TEMPERATURE IN CELSIUS
  WCI - WIND CHILL INDEX
   HX - HEAT INDEX
  VSB - VISIBILITY
$$



USA.gov is the U.S. government's official web portal to all federal, state and local government web resources and services.